Weather History for KMEM - November, 2013

Change the Weather History Date:

Saturday, November 16, 2013

  Actual Average Record
Temperature  
Mean Temperature 61 °F 53 °F  
Max Temperature 69 °F 62 °F 82 °F (1958)
Min Temperature 53 °F 44 °F 20 °F (1940)
Degree Days  
Heating Degree Days 4 12  
Month to date heating degree days 190 157  
Since 1 July heating degree days 303 288  
Cooling Degree Days 0 0  
Month to date cooling degree days 0 11  
Year to date cooling degree days 2237 2254  
Growing Degree Days 10 (Base 50)    
Moisture  
Dew Point 58 °F    
Average Humidity 86    
Maximum Humidity 93    
Minimum Humidity 78    
Precipitation  
Precipitation 0.00 in 0.19 in 3.94 in (1987)
Month to date precipitation 0.38 2.66  
Year to date precipitation 52.32 45.11  
Snow  
Snow 0.00 in 0.00 in 0.20 in (1937)
Month to date snowfall 0.0 0.0  
Since 1 July snowfall 0.0 0.0  
Since 1 September snowfall 0.0 0.0  
Snow Depth 0.00 in    
Sea Level Pressure  
Sea Level Pressure 29.96 in    
Wind  
Wind Speed 12 mph (South)    
Max Wind Speed 23 mph    
Max Gust Speed 30 mph    
Visibility 7 miles    
Events Fog    
T = Trace of Precipitation, MM = Missing Value Source: NWS Daily Summary

Daily Weather History Graph

Daily Weather History Graph

Search for Another Location

Airport or City:

Trip Planner

Search our weather history database for the weather conditions in past years. The results will help you decide how hot, cold, wet, or windy it might be!

Date:

Astronomy

Nov. 16, 2013 Rise Set
Actual Time 6:35 AM CST 4:53 PM CST
Civil Twilight 6:08 AM CST 5:20 PM CST
Nautical Twilight 5:38 AM CST 5:51 PM CST
Astronomical Twilight 5:08 AM CST 6:21 PM CST
Moon 4:27 PM CST (11/16) 5:34 AM CST (11/16)
Length of Visible Light 11h 11m
Length of Day
10h 17m
Waxing Gibbous, 99% of the Moon is Illuminated
Nov 16
Waxing Gibbous
Nov 17
Full
Nov 25
Last Quarter
Dec 2
New
Dec 9
First Quarter

Hourly Weather History & Observations

Time (CST) Temp. Dew Point Humidity Pressure Visibility Wind Dir Wind Speed Gust Speed Precip Events Conditions
12:33 AM 53.6 °F 51.8 °F 94% 30.04 in 1.0 mi SSE 9.2 mph - N/A   Overcast
12:54 AM 53.1 °F 50.0 °F 89% 30.04 in 1.0 mi SSE 10.4 mph - N/A   Overcast
12:58 AM 53.6 °F 50.0 °F 88% 30.04 in 7.0 mi SSE 12.7 mph - N/A   Overcast
1:54 AM 53.1 °F 50.0 °F 89% 30.04 in 7.0 mi SE 6.9 mph - N/A   Overcast
2:54 AM 53.1 °F 50.0 °F 89% 30.03 in 7.0 mi SSE 9.2 mph - N/A   Overcast
3:54 AM 54.0 °F 51.1 °F 90% 30.04 in 7.0 mi SSE 9.2 mph - N/A   Overcast
4:54 AM 54.0 °F 51.1 °F 90% 30.03 in 7.0 mi South 8.1 mph - N/A   Overcast
5:40 AM 53.6 °F 51.8 °F 94% 30.03 in 5.0 mi South 10.4 mph - N/A   Overcast
5:54 AM 54.0 °F 52.0 °F 93% 30.04 in 4.0 mi South 11.5 mph - N/A   Overcast
6:26 AM 55.4 °F 53.6 °F 94% 30.03 in 2.0 mi SSE 8.1 mph - N/A   Overcast
6:31 AM 55.4 °F 53.6 °F 94% 30.04 in 0.2 mi SSE 8.1 mph - N/A Fog Fog
6:51 AM 55.4 °F 53.6 °F 94% 30.03 in 0.5 mi SSE 8.1 mph - N/A Fog Fog
6:54 AM 55.0 °F 53.1 °F 93% 30.03 in 0.5 mi SSE 9.2 mph - N/A Fog Fog
7:54 AM 57.0 °F 54.0 °F 89% 30.04 in 0.5 mi SSE 11.5 mph - N/A   Overcast
8:50 AM 57.2 °F 55.4 °F 94% 30.03 in 2.0 mi SSE 13.8 mph - N/A   Overcast
8:54 AM 57.9 °F 55.9 °F 93% 30.03 in 2.0 mi SSE 12.7 mph - N/A   Overcast
9:11 AM 59.0 °F 55.4 °F 88% 30.02 in 2.0 mi South 12.7 mph - N/A   Overcast
9:54 AM 61.0 °F 57.0 °F 87% 30.02 in 2.0 mi South 15.0 mph 20.7 mph N/A   Overcast
10:04 AM 60.8 °F 57.2 °F 88% 30.01 in 7.0 mi South 13.8 mph - N/A   Overcast
10:54 AM 63.0 °F 57.9 °F 84% 29.99 in 7.0 mi South 9.2 mph - N/A   Overcast
11:41 AM 64.4 °F 59.0 °F 83% 29.97 in 10.0 mi South 11.5 mph - N/A   Overcast
11:54 AM 66.0 °F 59.0 °F 78% 29.96 in 8.0 mi South 15.0 mph - N/A   Overcast
12:39 PM 64.4 °F 59.0 °F 83% 29.95 in 10.0 mi South 15.0 mph - N/A   Overcast
12:54 PM 64.9 °F 60.1 °F 84% 29.93 in 10.0 mi South 15.0 mph - N/A   Overcast
1:54 PM 64.9 °F 60.1 °F 84% 29.92 in 10.0 mi South 9.2 mph - N/A   Overcast
2:34 PM 66.2 °F 60.8 °F 83% 29.90 in 10.0 mi South 8.1 mph - N/A   Overcast
2:54 PM 68.0 °F 62.1 °F 81% 29.90 in 10.0 mi South 8.1 mph - N/A   Overcast
3:54 PM 69.1 °F 62.1 °F 78% 29.88 in 10.0 mi South 13.8 mph - N/A   Mostly Cloudy
4:21 PM 68.0 °F 62.6 °F 83% 29.89 in 10.0 mi South 13.8 mph - N/A   Overcast
4:54 PM 68.0 °F 63.0 °F 84% 29.89 in 10.0 mi South 9.2 mph - N/A   Mostly Cloudy
5:54 PM 66.9 °F 63.0 °F 87% 29.89 in 10.0 mi South 10.4 mph - N/A   Mostly Cloudy
6:42 PM 66.2 °F 62.6 °F 88% 29.89 in 10.0 mi South 11.5 mph - N/A   Mostly Cloudy
6:54 PM 68.0 °F 63.0 °F 84% 29.89 in 10.0 mi South 13.8 mph - N/A   Mostly Cloudy
7:54 PM 66.9 °F 62.1 °F 84% 29.89 in 10.0 mi South 16.1 mph 24.2 mph N/A   Mostly Cloudy
8:50 PM 68.0 °F 62.6 °F 83% 29.89 in 10.0 mi South 12.7 mph 20.7 mph N/A   Mostly Cloudy
8:54 PM 66.9 °F 62.1 °F 84% 29.88 in 10.0 mi South 13.8 mph 20.7 mph N/A   Mostly Cloudy
9:19 PM 66.2 °F 62.6 °F 88% 29.88 in 10.0 mi South 13.8 mph 23.0 mph N/A   Mostly Cloudy
9:54 PM 66.9 °F 62.1 °F 84% 29.88 in 10.0 mi South 15.0 mph - N/A   Mostly Cloudy
10:54 PM 68.0 °F 63.0 °F 84% 29.88 in 10.0 mi South 21.9 mph - N/A   Mostly Cloudy
11:54 PM 69.1 °F 63.0 °F 81% 29.86 in 10.0 mi South 20.7 mph 28.8 mph N/A   Overcast